Weather History for KCMA - April, 2013

Change the Weather History Date:

Tuesday, April 9, 2013

  Actual Average Record
Temperature  
Mean Temperature 60 °F 58 °F  
Max Temperature 73 °F 68 °F 87 °F (1968)
Min Temperature 46 °F 48 °F 33 °F (1953)
Degree Days  
Heating Degree Days 5 7  
Month to date heating degree days 25 68  
Since 1 July heating degree days 1367 1681  
Cooling Degree Days 0 0  
Month to date cooling degree days 0 0  
Year to date cooling degree days 24 13  
Growing Degree Days 9 (Base 50)    
Moisture  
Dew Point 39 °F    
Average Humidity 44    
Maximum Humidity 71    
Minimum Humidity 16    
Precipitation  
Precipitation 0.00 in 0.02 in 1.14 in (1965)
Month to date precipitation 0.00 0.19  
Year to date precipitation 2.07 10.02  
Since 1 July precipitation 4.78  
Sea Level Pressure  
Sea Level Pressure 29.94 in    
Wind  
Wind Speed 7 mph (West)    
Max Wind Speed 25 mph    
Max Gust Speed 30 mph    
Visibility 10 miles    
Events      
T = Trace of Precipitation, MM = Missing Value Source: NWS Daily Summary

Daily Weather History Graph

Daily Weather History Graph

Search for Another Location

Airport or City:

Trip Planner

Search our weather history database for the weather conditions in past years. The results will help you decide how hot, cold, wet, or windy it might be!

Date:

Astronomy

Apr. 09, 2013 Rise Set
Actual Time 6:32 AM PDT 7:23 PM PDT
Civil Twilight 6:06 AM PDT 7:49 PM PDT
Nautical Twilight 5:36 AM PDT 8:19 PM PDT
Astronomical Twilight 5:05 AM PDT 8:50 PM PDT
Moon 5:56 AM PDT (4/9) 7:03 PM PDT (4/9)
Length of Visible Light 13h 42m
Length of Day
12h 51m
Waning Crescent, 0% of the Moon is Illuminated
Apr 9
Waning Crescent
Apr 10
New
Apr 18
First Quarter
Apr 25
Full
May 2
Last Quarter

Hourly Weather History & Observations

Time (PDT) Temp. Windchill Dew Point Humidity Pressure Visibility Wind Dir Wind Speed Gust Speed Precip Events Conditions
12:55 AM 55.9 °F - 42.1 °F 60% 29.88 in 10.0 mi Calm Calm - N/A   Clear
1:55 AM 53.1 °F - 43.0 °F 69% 29.88 in 10.0 mi East 4.6 mph - N/A   Clear
2:55 AM 51.1 °F - 41.0 °F 68% 29.87 in 10.0 mi East 4.6 mph - N/A   Clear
3:55 AM 50.0 °F - 39.0 °F 66% 29.88 in 10.0 mi Calm Calm - N/A   Clear
5:55 AM 48.9 °F - 37.9 °F 66% 29.90 in 10.0 mi Calm Calm - N/A   Clear
6:55 AM 46.0 °F 44.8 °F 37.0 °F 71% 29.93 in 10.0 mi NNW 3.5 mph - N/A   Clear
7:55 AM 54.0 °F - 39.0 °F 57% 29.96 in 10.0 mi Calm Calm - N/A   Clear
8:55 AM 64.0 °F - 32.0 °F 30% 29.97 in 10.0 mi ENE 3.5 mph - N/A   Clear
9:55 AM 69.1 °F - 21.9 °F 17% 29.97 in 10.0 mi Calm Calm - N/A   Clear
10:55 AM 70.0 °F - 23.0 °F 17% 29.98 in 10.0 mi Variable 3.5 mph - N/A   Clear
11:55 AM 72.0 °F - 34.0 °F 25% 29.96 in 10.0 mi West 13.8 mph 19.6 mph N/A   Clear
12:55 PM 71.1 °F - 36.0 °F 28% 29.96 in 10.0 mi West 15.0 mph - N/A   Clear
1:55 PM 71.1 °F - 37.0 °F 29% 29.95 in 10.0 mi West 16.1 mph - N/A   Clear
2:55 PM 72.0 °F - 34.0 °F 25% 29.93 in 10.0 mi West 19.6 mph - N/A   Clear
3:55 PM 70.0 °F - 37.0 °F 30% 29.92 in 10.0 mi West 24.2 mph 29.9 mph N/A   Clear
4:55 PM 69.1 °F - 41.0 °F 36% 29.92 in 10.0 mi West 13.8 mph - N/A   Clear
5:55 PM 66.9 °F - 45.0 °F 45% 29.93 in 10.0 mi SW 8.1 mph - N/A   Clear
6:55 PM 63.0 °F - 45.0 °F 52% 29.94 in 10.0 mi SW 6.9 mph - N/A   Clear
7:55 PM 60.1 °F - 46.9 °F 62% 29.96 in 9.0 mi South 3.5 mph - N/A   Clear
8:55 PM 57.9 °F - 46.0 °F 65% 29.98 in 9.0 mi Calm Calm - N/A   Clear
9:55 PM 55.9 °F - 45.0 °F 67% 30.00 in 10.0 mi ENE 4.6 mph - N/A   Clear
10:55 PM 60.1 °F - 45.0 °F 57% 30.01 in 10.0 mi ENE 10.4 mph - N/A   Clear
11:55 PM 59.0 °F - 39.0 °F 48% 30.02 in 10.0 mi Calm Calm - N/A   Clear